Location: Observatoire POLARIS
(46.3550°N, 73.3861°W)
Time: 22:54:13
(UTC-05:00)

Tiangong 2 - Visible Passes

Search period start: 24 November 2017 00:00
Search period end: 04 December 2017 00:00
Orbit: 386 x 392 km, 42.8° (Epoch: 24 November)

Date Brightness Start Highest point End Pass type
(mag) Time Alt. Az. Time Alt. Az. Time Alt. Az.
26 Nov 4.0 06:22:16 10° SSW 06:24:23 16° SSE 06:26:30 10° ESE visible
27 Nov 4.2 05:25:28 10° SSE 05:26:24 11° SSE 05:27:19 10° SE visible
28 Nov 3.3 06:01:52 10° SW 06:04:30 24° SSE 06:07:10 10° ESE visible
29 Nov 3.5 05:05:27 15° S 05:06:26 17° SSE 05:08:38 10° ESE visible
29 Nov 2.4 06:39:47 10° WSW 06:42:48 39° S 06:45:50 10° ESE visible
30 Nov 2.6 05:42:37 16° SW 05:44:38 32° SSE 05:47:33 10° E visible
01 Dec 3.4 04:47:18 22° SE 04:47:18 22° SE 04:49:11 10° ESE visible
01 Dec 2.1 06:19:54 10° WSW 06:22:58 43° S 06:26:02 10° ESE visible
02 Dec 2.0 05:24:12 36° SSW 05:24:45 39° S 05:27:47 10° ESE visible
03 Dec 4.2 04:28:43 15° ESE 04:28:43 15° ESE 04:29:29 10° E visible
03 Dec 2.0 06:01:01 18° WSW 06:03:05 42° S 06:06:09 10° ESE visible
